Time,TemperatureF,DewpointF,PressureIn,WindDirection,WindDirectionDegrees,WindSpeedMPH,WindSpeedGustMPH,Humidity,HourlyPrecipIn,Conditions,Clouds,dailyrainin,SoftwareType,DateUTC
2013-10-21 00:04:00,37.2,36.9,29.90,East,90,0.0,-999.0,99,-99.99,,,0.00,Acu-Link.com,2013-10-21 04:04:00,
2013-10-21 00:19:00,37.4,37.1,29.90,South,180,0.0,-999.0,99,-99.99,,,0.00,Acu-Link.com,2013-10-21 04:19:00,
2013-10-21 00:34:00,37.2,36.9,29.90,South,180,0.0,-999.0,99,-99.99,,,0.00,Acu-Link.com,2013-10-21 04:34:00,
2013-10-21 00:49:00,36.5,36.2,29.90,ESE,112,0.0,-999.0,99,-99.99,,,0.00,Acu-Link.com,2013-10-21 04:49:00,
2013-10-21 01:04:00,36.5,36.2,29.90,South,180,0.0,-999.0,99,-99.99,,,0.00,Acu-Link.com,2013-10-21 05:04:00,
2013-10-21 01:19:00,35.8,35.5,29.89,South,180,0.0,-999.0,99,-99.99,,,0.00,Acu-Link.com,2013-10-21 05:19:00,
2013-10-21 01:35:00,35.2,34.9,29.89,South,180,0.0,-999.0,99,-99.99,,,0.00,Acu-Link.com,2013-10-21 05:35:00,
2013-10-21 01:50:00,34.7,34.4,29.90,SSE,157,0.0,-999.0,99,-99.99,,,0.00,Acu-Link.com,2013-10-21 05:50:00,
2013-10-21 02:05:00,34.7,34.4,29.89,South,180,0.0,-999.0,99,-99.99,,,0.00,Acu-Link.com,2013-10-21 06:05:00,
2013-10-21 02:20:00,34.2,33.9,29.89,SSE,157,0.0,-999.0,99,-99.99,,,0.00,Acu-Link.com,2013-10-21 06:20:00,
2013-10-21 02:35:00,33.6,33.3,29.90,East,90,0.0,-999.0,99,-99.99,,,0.00,Acu-Link.com,2013-10-21 06:35:00,
2013-10-21 02:50:00,33.4,33.1,29.90,ESE,112,0.0,-999.0,99,-99.99,,,0.00,Acu-Link.com,2013-10-21 06:50:00,
2013-10-21 03:06:00,33.4,33.1,29.90,ESE,112,0.0,-999.0,99,-99.99,,,0.00,Acu-Link.com,2013-10-21 07:06:00,
2013-10-21 03:21:00,32.7,32.5,29.90,ESE,112,0.0,-999.0,99,-99.99,,,0.00,Acu-Link.com,2013-10-21 07:21:00,
2013-10-21 03:36:00,32.7,32.5,29.90,ESE,112,0.0,-999.0,99,-99.99,,,0.00,Acu-Link.com,2013-10-21 07:36:00,
2013-10-21 03:51:00,32.4,32.2,29.90,ESE,112,0.0,-999.0,99,-99.99,,,0.00,Acu-Link.com,2013-10-21 07:51:00,
2013-10-21 04:06:00,32.0,31.8,29.90,ESE,112,0.0,-999.0,99,-99.99,,,0.00,Acu-Link.com,2013-10-21 08:06:00,
2013-10-21 04:21:00,32.0,31.8,29.91,ESE,112,0.0,-999.0,99,-99.99,,,0.00,Acu-Link.com,2013-10-21 08:21:00,
2013-10-21 04:37:00,32.0,31.8,29.91,ESE,112,0.0,-999.0,99,-99.99,,,0.00,Acu-Link.com,2013-10-21 08:37:00,
2013-10-21 04:52:00,31.8,31.6,29.91,ESE,112,0.0,-999.0,99,-99.99,,,0.00,Acu-Link.com,2013-10-21 08:52:00,
2013-10-21 05:07:00,32.0,31.8,29.91,ESE,112,0.0,-999.0,99,-99.99,,,0.00,Acu-Link.com,2013-10-21 09:07:00,
2013-10-21 05:22:00,31.5,31.3,29.92,ESE,112,0.0,-999.0,99,-99.99,,,0.00,Acu-Link.com,2013-10-21 09:22:00,
2013-10-21 05:37:00,31.1,30.9,29.92,NNW,337,0.0,-999.0,99,-99.99,,,0.00,Acu-Link.com,2013-10-21 09:37:00,
2013-10-21 05:52:00,31.1,30.9,29.92,ESE,112,0.0,-999.0,99,-99.99,,,0.00,Acu-Link.com,2013-10-21 09:52:00,
2013-10-21 06:07:00,31.5,31.3,29.92,ESE,112,0.0,-999.0,99,-99.99,,,0.00,Acu-Link.com,2013-10-21 10:07:00,
2013-10-21 06:23:00,31.6,31.4,29.93,ESE,112,0.0,-999.0,99,-99.99,,,0.00,Acu-Link.com,2013-10-21 10:23:00,
2013-10-21 06:38:00,31.8,31.6,29.93,NE,45,0.0,-999.0,99,-99.99,,,0.00,Acu-Link.com,2013-10-21 10:38:00,
2013-10-21 06:53:00,32.0,31.8,29.93,South,180,0.0,-999.0,99,-99.99,,,0.00,Acu-Link.com,2013-10-21 10:53:00,
2013-10-21 07:08:00,32.0,31.8,29.94,ESE,112,0.0,-999.0,99,-99.99,,,0.00,Acu-Link.com,2013-10-21 11:08:00,
2013-10-21 07:23:00,31.8,31.6,29.94,ESE,112,0.0,-999.0,99,-99.99,,,0.00,Acu-Link.com,2013-10-21 11:23:00,
2013-10-21 07:38:00,32.4,32.2,29.94,ENE,67,0.0,-999.0,99,-99.99,,,0.00,Acu-Link.com,2013-10-21 11:38:00,
2013-10-21 07:53:00,31.8,31.6,29.95,North,0,0.0,-999.0,99,-99.99,,,0.00,Acu-Link.com,2013-10-21 11:53:00,
2013-10-21 08:08:00,31.6,31.4,29.95,NNE,22,0.0,-999.0,99,-99.99,,,0.00,Acu-Link.com,2013-10-21 12:08:00,
2013-10-21 08:23:00,32.4,32.2,29.95,NNE,22,0.0,-999.0,99,-99.99,,,0.00,Acu-Link.com,2013-10-21 12:23:00,
2013-10-21 08:38:00,33.3,33.0,29.95,NNE,22,0.0,-999.0,99,-99.99,,,0.00,Acu-Link.com,2013-10-21 12:38:00,
2013-10-21 08:54:00,34.9,34.6,29.95,West,270,0.0,-999.0,99,-99.99,,,0.00,Acu-Link.com,2013-10-21 12:54:00,
2013-10-21 09:09:00,37.2,36.9,29.96,NNE,22,0.0,-999.0,99,-99.99,,,0.00,Acu-Link.com,2013-10-21 13:09:00,
2013-10-21 09:24:00,40.1,39.8,29.96,WNW,292,0.0,-999.0,99,-99.99,,,0.00,Acu-Link.com,2013-10-21 13:24:00,
2013-10-21 09:39:00,45.3,45.0,29.97,East,90,0.0,-999.0,99,-99.99,,,0.00,Acu-Link.com,2013-10-21 13:39:00,
2013-10-21 09:54:00,50.7,45.7,29.97,ESE,112,0.0,-999.0,83,-99.99,,,0.00,Acu-Link.com,2013-10-21 13:54:00,
2013-10-21 10:09:00,46.9,46.1,29.97,ENE,67,0.0,-999.0,97,-99.99,,,0.00,Acu-Link.com,2013-10-21 14:09:00,
2013-10-21 10:24:00,49.5,46.7,29.97,West,270,1.7,-999.0,90,-99.99,,,0.00,Acu-Link.com,2013-10-21 14:24:00,
2013-10-21 10:39:00,52.9,48.5,29.97,SSE,157,0.0,-999.0,85,-99.99,,,0.00,Acu-Link.com,2013-10-21 14:39:00,
2013-10-21 10:54:00,54.5,48.8,29.96,SSE,157,1.1,-999.0,81,-99.99,,,0.00,Acu-Link.com,2013-10-21 14:54:00,
2013-10-21 11:10:00,56.3,49.5,29.96,ESE,112,2.2,-999.0,78,-99.99,,,0.00,Acu-Link.com,2013-10-21 15:10:00,
2013-10-21 11:25:00,58.3,49.7,29.96,SSW,202,0.0,-999.0,73,-99.99,,,0.00,Acu-Link.com,2013-10-21 15:25:00,
2013-10-21 11:40:00,61.0,49.1,29.95,NNE,22,0.0,-999.0,65,-99.99,,,0.00,Acu-Link.com,2013-10-21 15:40:00,
2013-10-21 11:55:00,61.9,49.2,29.94,West,270,2.7,-999.0,63,-99.99,,,0.00,Acu-Link.com,2013-10-21 15:55:00,
2013-10-21 12:10:00,64.2,49.1,29.94,SSW,202,2.7,-999.0,58,-99.99,,,0.00,Acu-Link.com,2013-10-21 16:10:00,
2013-10-21 12:25:00,65.8,50.6,29.93,ESE,112,2.7,-999.0,58,-99.99,,,0.00,Acu-Link.com,2013-10-21 16:25:00,
2013-10-21 12:40:00,66.2,51.9,29.93,West,270,3.7,-999.0,60,-99.99,,,0.00,Acu-Link.com,2013-10-21 16:40:00,
2013-10-21 12:55:00,67.8,52.0,29.92,West,270,0.0,-999.0,57,-99.99,,,0.00,Acu-Link.com,2013-10-21 16:55:00,
2013-10-21 13:10:00,69.1,51.2,29.91,South,180,2.2,-999.0,53,-99.99,,,0.00,Acu-Link.com,2013-10-21 17:10:00,
2013-10-21 13:26:00,69.8,50.8,29.90,South,180,3.7,-999.0,51,-99.99,,,0.00,Acu-Link.com,2013-10-21 17:26:00,
2013-10-21 13:41:00,70.7,52.2,29.88,SSW,202,2.7,-999.0,52,-99.99,,,0.00,Acu-Link.com,2013-10-21 17:41:00,
2013-10-21 13:56:00,70.5,50.4,29.87,SSW,202,4.2,-999.0,49,-99.99,,,0.00,Acu-Link.com,2013-10-21 17:56:00,
2013-10-21 14:11:00,70.5,46.9,29.87,SSE,157,2.7,-999.0,43,-99.99,,,0.00,Acu-Link.com,2013-10-21 18:11:00,
2013-10-21 14:26:00,71.4,48.3,29.87,South,180,2.2,-999.0,44,-99.99,,,0.00,Acu-Link.com,2013-10-21 18:26:00,
2013-10-21 14:41:00,71.1,46.8,29.85,SSW,202,3.2,-999.0,42,-99.99,,,0.00,Acu-Link.com,2013-10-21 18:41:00,
2013-10-21 14:56:00,71.6,45.3,29.84,SSW,202,2.2,-999.0,39,-99.99,,,0.00,Acu-Link.com,2013-10-21 18:56:00,
2013-10-21 15:11:00,70.7,45.2,29.83,South,180,2.2,-999.0,40,-99.99,,,0.00,Acu-Link.com,2013-10-21 19:11:00,
2013-10-21 15:26:00,70.7,45.8,29.84,SW,225,4.7,-999.0,41,-99.99,,,0.00,Acu-Link.com,2013-10-21 19:26:00,
2013-10-21 15:42:00,70.2,46.0,29.83,ESE,112,3.2,-999.0,42,-99.99,,,0.00,Acu-Link.com,2013-10-21 19:42:00,
2013-10-21 15:57:00,70.2,47.3,29.83,South,180,2.2,-999.0,44,-99.99,,,0.00,Acu-Link.com,2013-10-21 19:57:00,
2013-10-21 16:12:00,71.8,49.3,29.82,WSW,247,3.2,-999.0,45,-99.99,,,0.00,Acu-Link.com,2013-10-21 20:12:00,
2013-10-21 16:27:00,69.8,46.9,29.82,WSW,247,1.7,-999.0,44,-99.99,,,0.00,Acu-Link.com,2013-10-21 20:27:00,
2013-10-21 16:42:00,68.9,46.1,29.83,NNE,22,1.7,-999.0,44,-99.99,,,0.00,Acu-Link.com,2013-10-21 20:42:00,
2013-10-21 16:57:00,69.8,46.3,29.83,SSW,202,1.7,-999.0,43,-99.99,,,0.00,Acu-Link.com,2013-10-21 20:57:00,
2013-10-21 17:12:00,68.2,46.6,29.83,WSW,247,2.7,-999.0,46,-99.99,,,0.00,Acu-Link.com,2013-10-21 21:12:00,
2013-10-21 17:27:00,67.8,48.5,29.82,SSW,202,1.7,-999.0,50,-99.99,,,0.00,Acu-Link.com,2013-10-21 21:27:00,
2013-10-21 17:42:00,69.8,48.7,29.82,South,180,0.0,-999.0,47,-99.99,,,0.00,Acu-Link.com,2013-10-21 21:42:00,
2013-10-21 17:58:00,68.2,51.4,29.82,ESE,112,0.0,-999.0,55,-99.99,,,0.00,Acu-Link.com,2013-10-21 21:58:00,
2013-10-21 18:13:00,65.8,54.9,29.81,East,90,0.0,-999.0,68,-99.99,,,0.00,Acu-Link.com,2013-10-21 22:13:00,
2013-10-21 18:28:00,63.3,53.3,29.82,East,90,0.0,-999.0,70,-99.99,,,0.00,Acu-Link.com,2013-10-21 22:28:00,
2013-10-21 18:43:00,60.6,53.0,29.82,East,90,0.0,-999.0,76,-99.99,,,0.00,Acu-Link.com,2013-10-21 22:43:00,
2013-10-21 18:58:00,59.2,53.7,29.82,East,90,0.0,-999.0,82,-99.99,,,0.00,Acu-Link.com,2013-10-21 22:58:00,
2013-10-21 19:13:00,56.3,53.4,29.83,SSE,157,0.0,-999.0,90,-99.99,,,0.00,Acu-Link.com,2013-10-21 23:13:00,
2013-10-21 19:28:00,55.4,53.4,29.83,SSE,157,0.0,-999.0,93,-99.99,,,0.00,Acu-Link.com,2013-10-21 23:28:00,
2013-10-21 19:43:00,54.3,52.9,29.83,SSE,157,0.0,-999.0,95,-99.99,,,0.00,Acu-Link.com,2013-10-21 23:43:00,
2013-10-21 19:59:00,53.6,52.2,29.83,SSE,157,0.0,-999.0,95,-99.99,,,0.00,Acu-Link.com,2013-10-21 23:59:00,
2013-10-21 20:14:00,53.1,51.7,29.83,SSE,157,0.0,-999.0,95,-99.99,,,0.00,Acu-Link.com,2013-10-22 00:14:00,
2013-10-21 20:29:00,52.5,51.4,29.83,SSE,157,0.0,-999.0,96,-99.99,,,0.00,Acu-Link.com,2013-10-22 00:29:00,
2013-10-21 20:44:00,52.2,51.9,29.84,ESE,112,0.0,-999.0,99,-99.99,,,0.00,Acu-Link.com,2013-10-22 00:44:00,
2013-10-21 20:59:00,51.8,51.5,29.84,ESE,112,0.0,-999.0,99,-99.99,,,0.00,Acu-Link.com,2013-10-22 00:59:00,
2013-10-21 21:14:00,51.4,51.1,29.83,ESE,112,0.0,-999.0,99,-99.99,,,0.00,Acu-Link.com,2013-10-22 01:14:00,
2013-10-21 21:29:00,50.7,50.4,29.84,SE,135,0.0,-999.0,99,-99.99,,,0.00,Acu-Link.com,2013-10-22 01:29:00,
2013-10-21 21:44:00,50.4,50.1,29.84,SSE,157,0.0,-999.0,99,-99.99,,,0.00,Acu-Link.com,2013-10-22 01:44:00,
2013-10-21 22:00:00,50.2,49.9,29.84,South,180,0.0,-999.0,99,-99.99,,,0.00,Acu-Link.com,2013-10-22 02:00:00,
2013-10-21 22:15:00,49.6,49.3,29.84,SSE,157,0.0,-999.0,99,-99.99,,,0.00,Acu-Link.com,2013-10-22 02:15:00,
2013-10-21 22:30:00,49.5,49.2,29.85,South,180,0.0,-999.0,99,-99.99,,,0.00,Acu-Link.com,2013-10-22 02:30:00,
2013-10-21 22:45:00,49.5,49.2,29.85,South,180,0.0,-999.0,99,-99.99,,,0.00,Acu-Link.com,2013-10-22 02:45:00,
2013-10-21 23:00:00,49.1,48.8,29.85,South,180,0.0,-999.0,99,-99.99,,,0.00,Acu-Link.com,2013-10-22 03:00:00,
2013-10-21 23:15:00,49.1,48.8,29.84,South,180,0.0,-999.0,99,-99.99,,,0.00,Acu-Link.com,2013-10-22 03:15:00,
2013-10-21 23:30:00,49.3,49.0,29.84,South,180,0.0,-999.0,99,-99.99,,,0.00,Acu-Link.com,2013-10-22 03:30:00,
2013-10-21 23:45:00,49.6,49.3,29.85,WNW,292,0.0,-999.0,99,-99.99,,,0.00,Acu-Link.com,2013-10-22 03:45:00,